Skip Page Navigation
NASA JPL Caltech
NASA Logo - Jet Propulsion Laboratory + View the NASA Portal
+ Center for Near-Earth Object Studies
JPL Home Earth Solar System Stars & Galaxies Technology
JPL Solar System Dynamics
BODIES ORBITS EPHEMERIDES TOOLS PHYSICAL DATA DISCOVERY FAQ SITE MAP
IMPORTANT: The SSD Announcement email list is now available. Major changes are coming in the near future, including possible hostname and/or URL changes. To be notified of such changes, subscribe to this email list.

Please visit this page for more details.


JPL Small-Body Database Browser
Search: [ help ]  
379539 (2010 XA48)
Classification: Main-belt Asteroid          SPK-ID: 2379539
Ephemeris | Orbit Diagram | Orbital Elements | Mission Design | Physical Parameters | Discovery Circumstances | Close-Approach Data ]

[ hide orbit diagram ]

For accurate long-term ephemerides, please instead use our Horizons system.This orbit viewer was implemented using two-body methods, and hence should not be used for determining accurate long-term trajectories (over several years or decades) or planetary encounter circumstances.


[ revert to old Java-based viewer ]

Orbital Elements at Epoch 2459000.5 (2020-May-31.0) TDB
Reference: JPL 14 (heliocentric ecliptic J2000)
 Element Value Uncertainty (1-sigma)   Units 
e .1593972625385996 5.2377e-08  
a 2.172890304610172 1.8616e-08 au
q 1.826537538258647 1.1467e-07 au
i 4.071970708733834 4.8094e-06 deg
node 93.36582134113307 9.1574e-05 deg
peri 122.972924936112 9.3953e-05 deg
M 186.600339132874 2.471e-05 deg
tp 2459564.009021171682
(2021-Dec-15.50902117)
8.4897e-05 TDB
period 1169.917210952662
3.20
1.5035e-05
4.116e-08
d
yr
n .3077140815005641 3.9545e-09 deg/d
Q 2.519243070961698 2.1584e-08 au
  Orbit Determination Parameters
   # obs. used (total)      217  
   data-arc span      6437 days (17.62 yr)  
   first obs. used      2002-02-12  
   last obs. used      2019-09-28  
   planetary ephem.      DE431  
   SB-pert. ephem.      SB431-N16  
   condition code      0  
   norm. resid. RMS      .68214  
   source      ORB  
   producer      Otto Matic  
   solution date      2019-Nov-08 12:33:55  

Additional Information
 Earth MOID = .82304 au 
 Jupiter MOID = 2.45278 au 
 T_jup = 3.667 
[ show covariance matrix ]

Ephemeris | Orbit Diagram | Orbital Elements | Mission Design | Physical Parameters | Discovery Circumstances | Close-Approach Data ]

Physical Parameter Table
Parameter Symbol Value Units Sigma Reference Notes
absolute magnitude H 17.8   n/a MPO437555  

379539 (2010 XA48)          Discovered 2007-Oct-20 by Mt. Lemmon Survey at Mount Lemmon
Reference: Last Updated: 2013-11-20

[ show close-approach data ]
Alternate Designations
 2010 XA48 = 2002 CZ313 = 2007 WN15 
Ephemeris | Orbit Diagram | Orbital Elements | Mission Design | Physical Parameters | Discovery Circumstances | Close-Approach Data ]
ABOUT SSD CREDITS/AWARDS PRIVACY/COPYRIGHT GLOSSARY LINKS
FirstGov 2020-Apr-08 20:02 UT
(server date/time)  
NASA Home Page
Site Manager:   Ryan S. Park
Webmaster  Alan B. Chamberlin